Latest Weather Observations for Carnarvon

IDW60801

Issued at 1:35 pm WST Thursday 24 April 2014 (issued every 30 minutes, with the page automatically refreshed every 10 minutes)

About weather observations | Map of weather stations | Latest weather observations for WA | Other Formats
Station Details ID: 006011 Name: CARNARVON AIRPORT Lat: -24.89 Lon: 113.67 Height: 4.0 m
Data from the previous 72 hours. | See also: Recent months at Carnarvon
Date/Time
WST
Temp
°C
App
Temp
°C
Dew
Point
Rel
Hum
%
Delta-T
°C
Wind Press
QNH
hPa
Press
MSL
hPa
Rain
since 9 am
mm
Dir
 
Spd
km/h
Gust
km/h
Spd
kts
Gust
kts
24/01:30pm 25.0 24.4 18.9 69 3.9 S 20 28 11 15 1009.5 - 0.0
24/01:00pm 26.0 24.5 18.5 63 4.8 SSW 24 30 13 16 1009.6 - 0.0
24/12:30pm 25.1 23.9 19.2 70 3.8 SSW 24 30 13 16 1010.0 - 0.0
24/12:00pm 24.7 24.2 19.1 71 3.6 SSW 20 26 11 14 1010.5 1010.5 0.0
24/11:30am 24.6 24.2 19.0 71 3.6 S 19 22 10 12 1011.1 - 0.0
24/11:00am 24.2 24.6 19.0 72 3.3 SSW 15 19 8 10 1011.6 - 0.0
24/10:30am 24.4 25.1 18.9 71 3.5 S 13 17 7 9 1012.0 - 0.0
24/10:00am 24.3 25.0 18.8 71 3.5 S 13 17 7 9 1012.4 - 0.0
24/09:30am 23.8 23.8 18.9 74 3.1 S 17 20 9 11 1012.3 - 0.0
24/09:00am 23.5 24.0 19.3 77 2.7 SSE 15 17 8 9 1012.4 1012.4 0.0
24/08:30am 22.9 23.6 19.6 81 2.1 S 15 19 8 10 1011.8 - 0.0
24/08:00am 22.5 23.6 19.7 84 1.8 S 13 17 7 9 1011.7 - 0.0
24/07:30am 22.2 22.8 19.5 85 1.7 S 15 17 8 9 1011.4 - 0.0
24/07:00am 22.0 23.4 19.5 86 1.6 S 11 15 6 8 1011.2 - 0.0
24/06:30am 21.9 22.9 19.4 86 1.6 S 13 17 7 9 1010.7 - 0.0
24/06:00am 22.0 22.5 19.3 85 1.7 S 15 19 8 10 1010.6 1010.6 0.0
24/05:30am 21.8 22.7 19.3 86 1.6 S 13 17 7 9 1010.3 - 0.0
24/05:00am 21.5 23.1 19.1 86 1.5 S 9 13 5 7 1010.3 - 0.0
24/04:30am 21.5 22.7 19.0 86 1.6 S 11 15 6 8 1010.0 - 0.0
24/04:00am 21.5 23.1 19.1 86 1.5 S 9 13 5 7 1010.2 - 0.0
24/03:30am 21.6 22.4 19.1 86 1.6 S 13 17 7 9 1010.3 - 0.0
24/03:00am 21.5 22.2 18.8 84 1.7 S 13 17 7 9 1010.5 1010.5 0.0
24/02:30am 20.9 22.1 18.3 85 1.6 S 9 13 5 7 1010.6 - 0.0
24/02:00am 20.2 21.3 18.1 88 1.3 S 9 9 5 5 1011.0 - 0.0
24/01:30am 19.7 21.0 17.6 88 1.3 S 7 9 4 5 1011.2 - 0.0
24/01:00am 20.1 21.5 17.8 86 1.4 S 7 9 4 5 1011.4 - 0.0
24/12:30am 20.8 22.2 17.9 83 1.8 S 7 7 4 4 1011.6 - 0.0
24/12:00am 21.3 22.0 17.9 81 2.1 S 11 13 6 7 1011.5 1011.5 0.0
 
Date/Time
WST
Temp
°C
App
Temp
°C
Dew
Point
Rel
Hum
%
Delta-T
°C
Wind Press
QNH
hPa
Press
MSL
hPa
Rain
since 9 am
mm
Dir
 
Spd
km/h
Gust
km/h
Spd
kts
Gust
kts
23/11:30pm 22.2 23.2 19.5 85 1.7 S 13 19 7 10 1011.9 - 0.0
23/11:00pm 22.3 22.9 19.5 84 1.8 S 15 19 8 10 1011.8 - 0.0
23/10:30pm 22.3 22.5 19.3 83 1.9 S 17 20 9 11 1012.0 - 0.0
23/10:00pm 22.4 23.0 19.4 83 1.9 S 15 20 8 11 1012.3 - 0.0
23/09:30pm 22.4 23.4 19.4 83 1.9 S 13 17 7 9 1012.5 - 0.0
23/09:00pm 21.5 24.7 18.8 84 1.7 CALM 0 0 0 0 1012.5 1012.5 0.0
23/08:30pm 21.6 23.6 18.7 83 1.8 SSE 6 7 3 4 1012.6 - 0.0
23/08:00pm 22.0 23.5 18.8 82 2.0 SSE 9 11 5 6 1012.2 - 0.0
23/07:30pm 22.7 23.9 19.1 80 2.3 S 11 13 6 7 1012.5 - 0.0
23/07:00pm 23.2 23.2 18.9 77 2.7 SSW 17 20 9 11 1012.3 - 0.0
23/06:30pm 23.1 23.8 18.8 77 2.7 SSW 13 17 7 9 1012.2 - 0.0
23/06:00pm 23.4 23.7 18.7 75 3.0 S 15 19 8 10 1011.9 1011.9 0.0
23/05:30pm 23.7 23.4 18.3 71 3.4 S 17 20 9 11 1011.6 - 0.0
23/05:00pm 23.8 23.3 17.7 68 3.8 S 17 20 9 11 1011.7 - 0.0
23/04:30pm 24.2 23.4 17.1 64 4.4 SSW 17 22 9 12 1011.7 - 0.0
23/04:00pm 24.0 23.0 17.6 67 4.0 SSW 19 22 10 12 1011.4 - 0.0
23/03:30pm 24.0 22.9 17.8 68 3.9 S 20 26 11 14 1011.3 - 0.0
23/03:00pm 24.0 21.9 17.2 65 4.2 SSW 24 30 13 16 1011.1 1011.1 0.0
23/02:30pm 24.3 23.4 17.7 66 4.1 SW 19 22 10 12 1011.4 - 0.0
23/02:00pm 23.9 22.7 16.0 61 4.8 WSW 17 20 9 11 1011.6 - 0.0
23/01:30pm 23.4 23.1 16.5 65 4.2 SSW 13 17 7 9 1011.6 - 0.0
23/01:00pm 23.0 22.7 16.4 66 4.0 S 13 17 7 9 1011.7 - 0.0
23/12:30pm 23.0 21.5 16.2 65 4.1 S 19 22 10 12 1012.2 - 0.0
23/12:00pm 23.6 22.1 16.4 64 4.4 S 19 20 10 11 1012.7 1012.7 0.0
23/11:30am 23.1 21.9 16.2 65 4.2 S 17 20 9 11 1013.0 - 0.0
23/11:00am 23.5 21.9 16.1 63 4.5 S 19 22 10 12 1013.1 - 0.0
23/10:30am 23.5 22.5 16.6 65 4.2 S 17 20 9 11 1013.3 - 0.0
23/10:00am 23.3 22.0 16.8 67 4.0 S 19 22 10 12 1013.7 - 0.0
23/09:30am 23.2 21.7 16.8 67 3.9 S 20 24 11 13 1013.6 - 0.0
23/09:00am 23.2 21.5 17.2 69 3.7 S 22 24 12 13 1013.7 1013.7 0.0
23/08:30am 23.9 23.2 17.3 66 4.1 S 17 22 9 12 1013.4 - 0.0
23/08:00am 22.4 21.1 15.9 66 3.9 S 17 22 9 12 1013.1 - 0.0
23/07:30am 21.7 20.4 15.9 69 3.5 SSE 17 22 9 12 1012.5 - 0.0
23/07:00am 21.4 20.1 15.9 71 3.3 SSE 17 24 9 13 1012.2 - 0.0
23/06:30am 21.3 20.1 16.0 72 3.2 S 17 22 9 12 1012.3 - 0.0
23/06:00am 21.5 19.8 15.8 70 3.4 S 19 22 10 12 1012.3 1012.3 0.0
23/05:30am 21.3 20.0 15.8 71 3.3 S 17 22 9 12 1012.2 - 0.0
23/05:00am 21.5 19.7 15.6 69 3.5 SSE 19 24 10 13 1012.1 - 0.0
23/04:30am 21.6 20.3 15.8 69 3.5 S 17 22 9 12 1011.9 - 0.0
23/04:00am 21.7 20.0 15.7 68 3.6 SSE 19 26 10 14 1011.9 - 0.0
23/03:30am 21.9 20.4 16.3 70 3.4 SSE 19 24 10 13 1011.9 - 0.0
23/03:00am 22.0 20.7 16.9 73 3.1 S 19 24 10 13 1011.9 1011.9 0.0
23/02:30am 22.2 21.7 17.7 75 2.8 S 17 22 9 12 1012.2 - 0.0
23/02:00am 22.1 21.6 17.7 76 2.7 S 17 20 9 11 1012.7 - 0.0
23/01:30am 22.1 21.6 17.9 77 2.6 S 17 20 9 11 1012.8 - 0.0
23/01:00am 22.2 21.7 17.9 76 2.7 S 17 22 9 12 1013.0 - 0.0
23/12:30am 22.2 22.2 18.0 77 2.6 S 15 20 8 11 1013.4 - 0.0
23/12:00am 22.3 22.2 17.8 75 2.8 SSE 15 20 8 11 1013.5 1013.5 0.0
 
Date/Time
WST
Temp
°C
App
Temp
°C
Dew
Point
Rel
Hum
%
Delta-T
°C
Wind Press
QNH
hPa
Press
MSL
hPa
Rain
since 9 am
mm
Dir
 
Spd
km/h
Gust
km/h
Spd
kts
Gust
kts
22/11:30pm 22.5 22.0 17.7 74 3.0 S 17 22 9 12 1013.7 - 0.0
22/11:00pm 22.5 22.0 17.8 75 2.9 S 17 22 9 12 1013.9 - 0.0
22/10:30pm 22.8 22.2 17.5 72 3.3 S 17 20 9 11 1014.1 - 0.0
22/10:00pm 23.1 22.4 17.3 70 3.6 S 17 20 9 11 1014.1 - 0.0
22/09:30pm 23.5 23.0 17.9 71 3.5 S 17 22 9 12 1014.1 - 0.0
22/09:00pm 23.8 23.1 18.2 71 3.5 S 19 24 10 13 1014.1 1014.1 0.0
22/08:30pm 23.9 23.0 18.2 70 3.6 S 20 28 11 15 1013.8 - 0.0
22/08:00pm 24.1 23.4 18.6 71 3.5 S 20 28 11 15 1013.6 - 0.0
22/07:30pm 24.2 23.4 18.5 70 3.6 S 20 26 11 14 1013.3 - 0.0
22/07:00pm 24.3 23.1 18.4 69 3.7 S 22 28 12 15 1013.0 - 0.0
22/06:30pm 24.6 23.0 18.4 68 3.9 SSW 24 32 13 17 1012.6 - 0.0
22/06:00pm 24.9 24.5 18.8 69 3.9 SSW 19 24 10 13 1012.3 1012.3 0.0
22/05:30pm 25.3 24.0 17.3 61 5.0 S 20 28 11 15 1012.0 - 0.0
22/05:00pm 26.0 24.1 17.7 60 5.2 SSW 24 32 13 17 1011.7 - 0.0
22/04:30pm 26.3 24.2 18.1 60 5.2 SSW 26 32 14 17 1011.8 - 0.0
22/04:00pm 26.5 24.4 19.0 63 4.8 SSW 28 33 15 18 1011.7 - 0.0
22/03:30pm 26.7 24.7 18.4 60 5.3 SSW 26 33 14 18 1011.7 - 0.0
22/03:00pm 26.0 23.8 17.9 61 5.1 SSW 26 32 14 17 1011.8 1011.8 0.0
22/02:30pm 26.6 23.7 17.1 56 5.9 SSW 28 33 15 18 1011.9 - 0.0
22/02:00pm 26.3 23.1 17.2 57 5.7 S 30 37 16 20 1012.1 - 0.0
22/01:30pm 26.7 23.4 17.1 55 6.0 S 30 39 16 21 1012.3 - 0.0
22/01:00pm 26.7 22.9 15.7 51 6.7 SSW 30 37 16 20 1012.7 - 0.0
22/12:30pm 27.1 23.9 15.4 48 7.1 SSW 26 30 14 16 1013.0 - 0.0
22/12:00pm 25.4 22.9 15.1 53 6.2 SSW 22 26 12 14 1013.4 1013.4 0.0
22/11:30am 26.1 23.4 13.5 45 7.4 SSW 20 24 11 13 1014.0 - 0.0
22/11:00am 25.5 23.2 12.9 45 7.3 SSW 17 20 9 11 1014.3 - 0.0
22/10:30am 27.6 25.2 8.8 30 10.3 S 11 17 6 9 1014.6 - 0.0
22/10:00am 26.7 23.7 7.8 30 10.1 SSE 13 19 7 10 1015.0 - 0.0
22/09:30am 25.3 21.6 7.8 32 9.3 SSE 17 24 9 13 1014.9 - 0.0
22/09:00am 25.1 21.4 9.3 36 8.6 SSE 19 24 10 13 1015.0 1015.0 0.0
22/08:30am 23.5 20.0 8.7 39 7.9 SSE 17 22 9 12 1014.8 - 0.0
22/08:00am 21.3 18.0 9.5 47 6.3 SSE 17 24 9 13 1014.7 - 0.0
22/07:30am 18.3 16.3 11.5 64 3.7 SSE 13 15 7 8 1014.4 - 0.0
22/07:00am 16.9 15.3 11.4 70 3.0 SSE 11 11 6 6 1014.2 - 0.0
22/06:30am 17.2 15.6 11.7 70 3.0 SSE 11 13 6 7 1014.0 - 0.0
22/06:00am 17.2 15.5 12.3 73 2.7 S 13 15 7 8 1013.9 1013.9 0.0
22/05:30am 17.4 16.2 12.9 75 2.5 SSE 11 13 6 7 1013.8 - 0.0
22/05:00am 18.6 18.0 13.5 72 2.9 SSE 9 11 5 6 1013.5 - 0.0
22/04:30am 19.6 18.8 13.9 69 3.3 SSE 11 13 6 7 1013.4 - 0.0
22/04:00am 20.5 19.5 14.5 68 3.5 SSE 13 17 7 9 1013.3 - 0.0
22/03:30am 20.7 19.9 16.0 74 2.8 SSE 15 19 8 10 1013.5 - 0.0
22/03:00am 20.6 20.5 16.1 75 2.7 SSE 11 15 6 8 1013.6 1013.6 0.0
22/02:30am 20.7 20.2 16.0 74 2.8 SSE 13 15 7 8 1013.8 - 0.0
22/02:00am 21.1 21.1 16.3 74 2.9 SSE 11 13 6 7 1013.6 - 0.0
22/01:30am 21.8 20.9 16.9 73 3.0 S 17 20 9 11 1014.1 - 0.0
22/01:00am 21.9 21.2 17.3 75 2.8 S 17 20 9 11 1014.3 - 0.0
22/12:30am 22.0 21.4 17.5 75 2.8 S 17 20 9 11 1014.5 - 0.0
22/12:00am 22.0 20.8 17.5 75 2.8 S 20 30 11 16 1014.7 1014.7 0.0
 
Date/Time
WST
Temp
°C
App
Temp
°C
Dew
Point
Rel
Hum
%
Delta-T
°C
Wind Press
QNH
hPa
Press
MSL
hPa
Rain
since 9 am
mm
Dir
 
Spd
km/h
Gust
km/h
Spd
kts
Gust
kts
21/11:30pm 22.3 20.5 17.8 75 2.8 S 24 28 13 15 1014.8 - 0.0
21/11:00pm 22.3 20.4 17.6 75 2.9 S 24 32 13 17 1014.8 - 0.0
21/10:30pm 22.3 20.5 16.9 71 3.3 S 22 28 12 15 1015.1 - 0.0
21/10:00pm 22.4 20.8 17.4 73 3.1 S 22 30 12 16 1015.2 - 0.0
21/09:30pm 22.7 20.7 16.4 67 3.8 S 22 28 12 15 1015.4 - 0.0
21/09:00pm 23.0 21.0 17.5 71 3.4 S 24 30 13 16 1015.4 1015.4 0.0
21/08:30pm 23.1 20.6 17.1 69 3.7 S 26 32 14 17 1015.4 - 0.0
21/08:00pm 23.3 21.6 17.3 69 3.7 S 22 30 12 16 1015.3 - 0.0
21/07:30pm 23.3 21.3 16.4 65 4.2 S 22 28 12 15 1014.9 - 0.0
21/07:00pm 23.3 21.8 16.4 65 4.2 S 19 24 10 13 1014.8 - 0.0
21/06:30pm 23.3 21.6 16.2 64 4.3 S 20 26 11 14 1014.4 - 0.0
21/06:00pm 23.5 21.5 15.5 60 4.8 SSW 20 28 11 15 1014.5 1014.5 0.0
21/05:30pm 23.9 21.6 15.6 59 5.0 SSW 22 28 12 15 1014.4 - 0.0
21/05:00pm 23.9 21.2 15.6 59 5.0 SSW 24 30 13 16 1014.2 - 0.0
21/04:30pm 25.0 21.9 15.6 56 5.7 S 26 32 14 17 1013.9 - 0.0
21/04:00pm 25.5 22.4 15.6 54 6.0 S 26 35 14 19 1013.9 - 0.0
21/03:30pm 25.6 21.7 14.3 49 6.7 S 28 37 15 20 1014.0 - 0.0
21/03:00pm 25.5 20.8 14.4 50 6.6 S 32 41 17 22 1014.1 1014.1 0.0
21/02:30pm 25.5 20.4 13.8 48 6.9 S 33 44 18 24 1014.2 - 0.0
21/02:00pm 25.8 20.9 14.4 49 6.8 S 33 43 18 23 1014.0 - 0.0

Other Formats:

Comma delimited format used in spreadsheet applications
http://www.bom.gov.au/fwo/IDW60801/IDW60801.94300.axf

JavaScript Object Notation format (JSON) in row-major order
http://www.bom.gov.au/fwo/IDW60801/IDW60801.94300.json